Time,TemperatureF,DewpointF,PressureIn,WindDirection,WindDirectionDegrees,WindSpeedMPH,WindSpeedGustMPH,Humidity,HourlyPrecipIn,Conditions,Clouds,dailyrainin,SoftwareType,DateUTC
2013-12-12 00:02:00,22.0,18.0,-100.00,NNW,330,2.0,4.0,85,0.04,,,1.25,,2013-12-12 09:02:00,
2013-12-12 00:12:00,22.0,18.0,-100.00,NNW,330,2.0,4.0,85,0.04,,,1.25,,2013-12-12 09:12:00,
2013-12-12 00:21:00,22.0,18.0,-100.00,West,280,1.0,7.0,84,0.02,,,1.25,,2013-12-12 09:21:00,
2013-12-12 00:33:00,22.0,18.0,-100.00,West,280,1.0,7.0,84,0.02,,,1.25,,2013-12-12 09:33:00,
2013-12-12 00:43:00,22.0,18.0,-100.00,West,280,1.0,7.0,84,0.02,,,1.25,,2013-12-12 09:43:00,
2013-12-12 00:53:00,22.0,18.0,-100.00,NNW,345,0.0,2.0,86,0.02,,,1.27,,2013-12-12 09:53:00,
2013-12-12 01:03:00,22.0,18.0,-100.00,NNW,345,0.0,2.0,86,0.02,,,1.27,,2013-12-12 10:03:00,
2013-12-12 01:12:00,22.0,18.0,-100.00,NNW,345,0.0,2.0,86,0.02,,,1.27,,2013-12-12 10:12:00,
2013-12-12 01:22:00,22.0,19.0,-100.00,WSW,250,0.0,0.0,88,0.02,,,1.27,,2013-12-12 10:22:00,
2013-12-12 01:33:00,22.0,19.0,-100.00,WSW,250,0.0,0.0,88,0.02,,,1.27,,2013-12-12 10:33:00,
2013-12-12 01:43:00,22.0,19.0,-100.00,WSW,250,0.0,0.0,88,0.02,,,1.27,,2013-12-12 10:43:00,
2013-12-12 01:53:00,21.0,19.0,-100.00,NNE,25,0.0,0.0,90,0.04,,,1.27,,2013-12-12 10:53:00,
2013-12-12 02:02:00,21.0,19.0,-100.00,NNE,25,0.0,0.0,90,0.04,,,1.27,,2013-12-12 11:02:00,
2013-12-12 02:12:00,21.0,19.0,-100.00,NNE,25,0.0,0.0,90,0.04,,,1.27,,2013-12-12 11:12:00,
2013-12-12 02:23:00,21.0,19.0,-100.00,SSW,205,0.0,4.0,91,0.02,,,1.25,,2013-12-12 11:23:00,
2013-12-12 02:33:00,21.0,19.0,-100.00,SSW,205,0.0,4.0,91,0.02,,,1.25,,2013-12-12 11:33:00,
2013-12-12 02:42:00,21.0,19.0,-100.00,SSW,205,0.0,4.0,91,0.02,,,1.25,,2013-12-12 11:42:00,
2013-12-12 02:53:00,21.0,19.0,-100.00,NNW,340,1.0,3.0,91,0.02,,,1.25,,2013-12-12 11:53:00,
2013-12-12 03:02:00,21.0,19.0,-100.00,NNW,340,1.0,3.0,91,0.02,,,1.25,,2013-12-12 12:02:00,
2013-12-12 03:12:00,21.0,19.0,-100.00,NNW,340,1.0,3.0,91,0.02,,,1.25,,2013-12-12 12:12:00,
2013-12-12 03:22:00,21.0,18.0,-100.00,WNW,290,0.0,2.0,89,0.02,,,1.23,,2013-12-12 12:22:00,
2013-12-12 03:32:00,21.0,18.0,-100.00,WNW,290,0.0,2.0,89,0.02,,,1.23,,2013-12-12 12:32:00,
2013-12-12 03:42:00,21.0,18.0,-100.00,WNW,290,0.0,2.0,89,0.02,,,1.23,,2013-12-12 12:42:00,
2013-12-12 03:52:00,21.0,18.0,-100.00,WSW,240,1.0,2.0,90,0.00,,,1.20,,2013-12-12 12:52:00,
2013-12-12 04:01:00,21.0,18.0,-100.00,WSW,240,1.0,2.0,90,0.00,,,1.20,,2013-12-12 13:01:00,
2013-12-12 04:11:00,21.0,18.0,-100.00,WSW,240,1.0,2.0,90,0.00,,,1.20,,2013-12-12 13:11:00,
2013-12-12 04:21:00,20.0,18.0,-100.00,NE,35,0.0,0.0,91,0.02,,,1.20,,2013-12-12 13:21:00,
2013-12-12 04:32:00,20.0,18.0,-100.00,NE,35,0.0,0.0,91,0.02,,,1.20,,2013-12-12 13:32:00,
2013-12-12 04:42:00,20.0,18.0,-100.00,NE,35,0.0,0.0,91,0.02,,,1.20,,2013-12-12 13:42:00,
2013-12-12 04:52:00,20.0,18.0,-100.00,SW,230,1.0,2.0,91,0.02,,,1.18,,2013-12-12 13:52:00,
2013-12-12 05:02:00,20.0,18.0,-100.00,SW,230,1.0,2.0,91,0.02,,,1.18,,2013-12-12 14:02:00,
2013-12-12 05:11:00,20.0,18.0,-100.00,SW,230,1.0,2.0,91,0.02,,,1.18,,2013-12-12 14:11:00,
2013-12-12 05:22:00,20.0,18.0,-100.00,North,350,0.0,1.0,91,0.02,,,1.19,,2013-12-12 14:22:00,
2013-12-12 05:32:00,20.0,18.0,-100.00,North,350,0.0,1.0,91,0.02,,,1.19,,2013-12-12 14:32:00,
2013-12-12 05:42:00,20.0,18.0,-100.00,North,350,0.0,1.0,91,0.02,,,1.19,,2013-12-12 14:42:00,
2013-12-12 05:52:00,20.0,17.0,-100.00,North,0,0.0,1.0,90,0.02,,,1.17,,2013-12-12 14:52:00,
2013-12-12 06:02:00,20.0,17.0,-100.00,North,0,0.0,1.0,90,0.02,,,1.17,,2013-12-12 15:02:00,
2013-12-12 06:11:00,20.0,17.0,-100.00,North,0,0.0,1.0,90,0.02,,,1.17,,2013-12-12 15:11:00,
2013-12-12 06:22:00,20.0,17.0,-100.00,NNW,340,0.0,1.0,90,0.02,,,1.19,,2013-12-12 15:22:00,
2013-12-12 06:33:00,20.0,17.0,-100.00,NNW,340,0.0,1.0,90,0.02,,,1.19,,2013-12-12 15:33:00,
2013-12-12 06:43:00,20.0,17.0,-100.00,NNW,340,0.0,1.0,90,0.02,,,1.19,,2013-12-12 15:43:00,
2013-12-12 06:53:00,19.0,17.0,-100.00,NE,40,0.0,0.0,89,0.02,,,1.17,,2013-12-12 15:53:00,
2013-12-12 07:03:00,19.0,17.0,-100.00,NE,40,0.0,0.0,89,0.02,,,1.17,,2013-12-12 16:03:00,
2013-12-12 07:12:00,19.0,17.0,-100.00,NE,40,0.0,0.0,89,0.02,,,1.17,,2013-12-12 16:12:00,
2013-12-12 07:23:00,19.0,17.0,-100.00,NNW,340,1.0,1.0,90,0.00,,,1.15,,2013-12-12 16:23:00,
2013-12-12 07:33:00,19.0,17.0,-100.00,NNW,340,1.0,1.0,90,0.00,,,1.15,,2013-12-12 16:33:00,
2013-12-12 07:42:00,19.0,17.0,-100.00,NNW,340,1.0,1.0,90,0.00,,,1.15,,2013-12-12 16:42:00,
2013-12-12 07:53:00,19.0,16.0,-100.00,North,0,1.0,6.0,87,0.02,,,1.15,,2013-12-12 16:53:00,
2013-12-12 08:02:00,19.0,16.0,-100.00,North,0,1.0,6.0,87,0.02,,,1.15,,2013-12-12 17:02:00,
2013-12-12 08:12:00,19.0,16.0,-100.00,North,0,1.0,6.0,87,0.02,,,1.15,,2013-12-12 17:12:00,
2013-12-12 08:23:00,19.0,15.0,-100.00,NW,320,0.0,3.0,85,0.02,,,1.14,,2013-12-12 17:23:00,
2013-12-12 08:32:00,19.0,15.0,-100.00,NW,320,0.0,3.0,85,0.02,,,1.14,,2013-12-12 17:32:00,
2013-12-12 08:43:00,19.0,15.0,-100.00,NW,320,0.0,3.0,85,0.02,,,1.14,,2013-12-12 17:43:00,
2013-12-12 08:53:00,19.0,15.0,-100.00,NNE,15,0.0,1.0,86,0.00,,,1.12,,2013-12-12 17:53:00,
2013-12-12 09:02:00,19.0,15.0,-100.00,NNE,15,0.0,1.0,86,0.00,,,1.12,,2013-12-12 18:02:00,
2013-12-12 09:11:00,19.0,15.0,-100.00,NNE,15,0.0,1.0,86,0.00,,,1.12,,2013-12-12 18:11:00,
2013-12-12 09:21:00,18.0,15.0,-100.00,North,355,1.0,3.0,86,0.00,,,1.10,,2013-12-12 18:21:00,
2013-12-12 09:32:00,18.0,15.0,-100.00,North,355,1.0,3.0,86,0.00,,,1.10,,2013-12-12 18:32:00,
2013-12-12 09:43:00,18.0,15.0,-100.00,North,355,1.0,3.0,86,0.00,,,1.10,,2013-12-12 18:43:00,
2013-12-12 09:52:00,18.0,14.0,-100.00,North,0,2.0,6.0,84,0.00,,,1.08,,2013-12-12 18:52:00,
2013-12-12 10:01:00,18.0,14.0,-100.00,North,0,2.0,6.0,84,0.00,,,1.08,,2013-12-12 19:01:00,
2013-12-12 10:11:00,18.0,14.0,-100.00,North,0,2.0,6.0,84,0.00,,,1.08,,2013-12-12 19:11:00,
2013-12-12 10:21:00,19.0,13.0,-100.00,NNW,340,1.0,6.0,78,0.00,,,1.04,,2013-12-12 19:21:00,
2013-12-12 10:32:00,19.0,13.0,-100.00,NNW,340,1.0,6.0,78,0.00,,,1.04,,2013-12-12 19:32:00,
2013-12-12 10:42:00,19.0,13.0,-100.00,NNW,340,1.0,6.0,78,0.00,,,1.04,,2013-12-12 19:42:00,
2013-12-12 10:52:00,18.0,13.0,-100.00,NNW,330,1.0,6.0,78,0.01,,,1.03,,2013-12-12 19:52:00,
2013-12-12 11:02:00,18.0,13.0,-100.00,NNW,330,1.0,6.0,78,0.01,,,1.03,,2013-12-12 20:02:00,
2013-12-12 11:12:00,18.0,13.0,-100.00,NNW,330,1.0,6.0,78,0.01,,,1.03,,2013-12-12 20:12:00,
2013-12-12 11:21:00,18.0,13.0,-100.00,WNW,285,1.0,6.0,79,0.01,,,1.00,,2013-12-12 20:21:00,
2013-12-12 11:32:00,18.0,13.0,-100.00,WNW,285,1.0,6.0,79,0.01,,,1.00,,2013-12-12 20:32:00,
2013-12-12 11:42:00,18.0,13.0,-100.00,WNW,285,1.0,6.0,79,0.01,,,1.00,,2013-12-12 20:42:00,
2013-12-12 11:52:00,18.0,13.0,-100.00,West,270,2.0,6.0,80,0.01,,,0.99,,2013-12-12 20:52:00,
2013-12-12 12:02:00,18.0,13.0,-100.00,West,270,2.0,6.0,80,0.01,,,0.99,,2013-12-12 21:02:00,
2013-12-12 12:11:00,18.0,13.0,-100.00,West,270,2.0,6.0,80,0.01,,,0.99,,2013-12-12 21:11:00,
2013-12-12 12:21:00,18.0,13.0,-100.00,West,265,1.0,8.0,82,0.00,,,0.95,,2013-12-12 21:21:00,
2013-12-12 12:33:00,18.0,13.0,-100.00,West,265,1.0,8.0,82,0.00,,,0.95,,2013-12-12 21:33:00,
2013-12-12 12:43:00,18.0,13.0,-100.00,West,265,1.0,8.0,82,0.00,,,0.95,,2013-12-12 21:43:00,
2013-12-12 12:53:00,18.0,14.0,-100.00,NNW,335,1.0,6.0,82,0.03,,,0.96,,2013-12-12 21:53:00,
2013-12-12 13:03:00,18.0,14.0,-100.00,NNW,335,1.0,6.0,82,0.03,,,0.96,,2013-12-12 22:03:00,
2013-12-12 13:12:00,18.0,14.0,-100.00,NNW,335,1.0,6.0,82,0.03,,,0.96,,2013-12-12 22:12:00,
2013-12-12 13:22:00,19.0,14.0,-100.00,West,265,0.0,4.0,79,0.03,,,0.89,,2013-12-12 22:22:00,
2013-12-12 13:33:00,19.0,14.0,-100.00,West,265,0.0,4.0,79,0.03,,,0.89,,2013-12-12 22:33:00,
2013-12-12 13:43:00,19.0,14.0,-100.00,West,265,0.0,4.0,79,0.03,,,0.89,,2013-12-12 22:43:00,
2013-12-12 13:53:00,20.0,13.0,-100.00,North,0,0.0,1.0,73,0.00,,,0.83,,2013-12-12 22:53:00,
2013-12-12 14:02:00,20.0,13.0,-100.00,North,0,0.0,1.0,73,0.00,,,0.83,,2013-12-12 23:02:00,
2013-12-12 14:12:00,20.0,13.0,-100.00,North,0,0.0,1.0,73,0.00,,,0.83,,2013-12-12 23:12:00,
2013-12-12 14:22:00,20.0,13.0,-100.00,NNW,340,0.0,2.0,73,0.00,,,0.79,,2013-12-12 23:22:00,
2013-12-12 14:32:00,20.0,13.0,-100.00,NNW,340,0.0,2.0,73,0.00,,,0.79,,2013-12-12 23:32:00,
2013-12-12 14:42:00,20.0,13.0,-100.00,NNW,340,0.0,2.0,73,0.00,,,0.79,,2013-12-12 23:42:00,
2013-12-12 14:53:00,19.0,12.0,-100.00,NW,320,1.0,4.0,72,0.00,,,0.77,,2013-12-12 23:53:00,
2013-12-12 15:02:00,19.0,12.0,-100.00,NW,320,1.0,4.0,72,0.00,,,0.77,,2013-12-13 00:02:00,
2013-12-12 15:11:00,19.0,12.0,-100.00,NW,320,1.0,4.0,72,0.00,,,0.77,,2013-12-13 00:11:00,
2013-12-12 15:22:00,17.0,11.0,-100.00,NNW,340,0.0,0.0,78,0.00,,,0.73,,2013-12-13 00:22:00,
2013-12-12 15:32:00,17.0,11.0,-100.00,NNW,340,0.0,0.0,78,0.00,,,0.73,,2013-12-13 00:32:00,
2013-12-12 15:42:00,17.0,11.0,-100.00,NNW,340,0.0,0.0,78,0.00,,,0.73,,2013-12-13 00:42:00,
2013-12-12 15:52:00,16.0,12.0,-100.00,NNE,15,1.0,2.0,85,0.00,,,0.69,,2013-12-13 00:52:00,
2013-12-12 16:02:00,16.0,12.0,-100.00,NNE,15,1.0,2.0,85,0.00,,,0.69,,2013-12-13 01:02:00,
2013-12-12 16:12:00,16.0,12.0,-100.00,NNE,15,1.0,2.0,85,0.00,,,0.69,,2013-12-13 01:12:00,
2013-12-12 16:21:00,16.0,13.0,-100.00,NNE,20,0.0,2.0,87,0.00,,,0.64,,2013-12-13 01:21:00,
2013-12-12 16:32:00,16.0,13.0,-100.00,NNE,20,0.0,2.0,87,0.00,,,0.64,,2013-12-13 01:32:00,
2013-12-12 16:42:00,16.0,13.0,-100.00,NNE,20,0.0,2.0,87,0.00,,,0.64,,2013-12-13 01:42:00,
2013-12-12 16:52:00,15.0,13.0,-100.00,East,90,0.0,1.0,89,0.00,,,0.62,,2013-12-13 01:52:00,
2013-12-12 17:01:00,15.0,13.0,-100.00,East,90,0.0,1.0,89,0.00,,,0.62,,2013-12-13 02:01:00,
2013-12-12 17:11:00,15.0,13.0,-100.00,East,90,0.0,1.0,89,0.00,,,0.62,,2013-12-13 02:11:00,
2013-12-12 17:22:00,15.0,12.0,-100.00,NNE,30,1.0,2.0,89,0.00,,,0.58,,2013-12-13 02:22:00,
2013-12-12 17:32:00,15.0,12.0,-100.00,NNE,30,1.0,2.0,89,0.00,,,0.58,,2013-12-13 02:32:00,
2013-12-12 17:42:00,15.0,12.0,-100.00,NNE,30,1.0,2.0,89,0.00,,,0.58,,2013-12-13 02:42:00,
2013-12-12 17:52:00,14.0,11.0,-100.00,NNE,20,0.0,2.0,90,0.00,,,0.56,,2013-12-13 02:52:00,
2013-12-12 18:02:00,14.0,11.0,-100.00,NNE,20,0.0,2.0,90,0.00,,,0.56,,2013-12-13 03:02:00,
2013-12-12 18:11:00,14.0,11.0,-100.00,NNE,20,0.0,2.0,90,0.00,,,0.56,,2013-12-13 03:11:00,
2013-12-12 18:22:00,13.0,11.0,-100.00,NNE,20,1.0,2.0,90,0.00,,,0.54,,2013-12-13 03:22:00,
2013-12-12 18:32:00,13.0,11.0,-100.00,NNE,20,1.0,2.0,90,0.00,,,0.54,,2013-12-13 03:32:00,
2013-12-12 18:43:00,13.0,11.0,-100.00,NNE,20,1.0,2.0,90,0.00,,,0.54,,2013-12-13 03:43:00,
2013-12-12 18:53:00,13.0,10.0,-100.00,WNW,295,0.0,0.0,90,0.00,,,0.50,,2013-12-13 03:53:00,
2013-12-12 19:03:00,13.0,10.0,-100.00,WNW,295,0.0,0.0,90,0.00,,,0.50,,2013-12-13 04:03:00,
2013-12-12 19:12:00,13.0,10.0,-100.00,WNW,295,0.0,0.0,90,0.00,,,0.50,,2013-12-13 04:12:00,
2013-12-12 19:22:00,11.0,9.0,-100.00,ESE,105,0.0,1.0,90,0.00,,,0.48,,2013-12-13 04:22:00,
2013-12-12 19:33:00,11.0,9.0,-100.00,ESE,105,0.0,1.0,90,0.00,,,0.48,,2013-12-13 04:33:00,
2013-12-12 19:43:00,11.0,9.0,-100.00,ESE,105,0.0,1.0,90,0.00,,,0.48,,2013-12-13 04:43:00,
2013-12-12 19:52:00,10.0,8.0,-100.00,NNE,30,0.0,0.0,90,0.00,,,0.45,,2013-12-13 04:52:00,
2013-12-12 20:02:00,10.0,8.0,-100.00,NNE,30,0.0,0.0,90,0.00,,,0.45,,2013-12-13 05:02:00,
2013-12-12 20:12:00,10.0,8.0,-100.00,NNE,30,0.0,0.0,90,0.00,,,0.45,,2013-12-13 05:12:00,
2013-12-12 20:22:00,9.0,7.0,-100.00,NE,35,0.0,1.0,90,0.00,,,0.41,,2013-12-13 05:22:00,
2013-12-12 20:32:00,9.0,7.0,-100.00,NE,35,0.0,1.0,90,0.00,,,0.41,,2013-12-13 05:32:00,
2013-12-12 20:52:00,8.0,6.0,-100.00,North,10,0.0,1.0,90,0.00,,,0.39,,2013-12-13 05:52:00,
2013-12-12 21:02:00,8.0,6.0,-100.00,North,10,0.0,1.0,90,0.00,,,0.39,,2013-12-13 06:02:00,
2013-12-12 21:12:00,8.0,6.0,-100.00,North,10,0.0,1.0,90,0.00,,,0.39,,2013-12-13 06:12:00,
2013-12-12 21:52:00,8.0,6.0,-100.00,NNE,25,0.0,1.0,89,0.00,,,0.35,,2013-12-13 06:52:00,
2013-12-12 22:02:00,8.0,6.0,-100.00,NNE,25,0.0,1.0,89,0.00,,,0.35,,2013-12-13 07:02:00,
2013-12-12 22:11:00,8.0,6.0,-100.00,NNE,25,0.0,1.0,89,0.00,,,0.35,,2013-12-13 07:11:00,
2013-12-12 22:22:00,10.0,7.0,-100.00,SSE,150,0.0,1.0,89,0.00,,,0.33,,2013-12-13 07:22:00,
2013-12-12 22:32:00,10.0,7.0,-100.00,SSE,150,0.0,1.0,89,0.00,,,0.33,,2013-12-13 07:32:00,
2013-12-12 22:42:00,10.0,7.0,-100.00,SSE,150,0.0,1.0,89,0.00,,,0.33,,2013-12-13 07:42:00,
2013-12-12 22:52:00,10.0,8.0,-100.00,West,280,0.0,0.0,89,0.00,,,0.31,,2013-12-13 07:52:00,
2013-12-12 23:02:00,10.0,8.0,-100.00,West,280,0.0,0.0,89,0.00,,,0.31,,2013-12-13 08:02:00,
2013-12-12 23:11:00,10.0,8.0,-100.00,West,280,0.0,0.0,89,0.00,,,0.31,,2013-12-13 08:11:00,
2013-12-12 23:22:00,9.0,7.0,-100.00,West,270,0.0,0.0,89,0.00,,,0.29,,2013-12-13 08:22:00,
2013-12-12 23:32:00,9.0,7.0,-100.00,West,270,0.0,0.0,89,0.00,,,0.29,,2013-12-13 08:32:00,
2013-12-12 23:42:00,9.0,7.0,-100.00,West,270,0.0,0.0,89,0.00,,,0.29,,2013-12-13 08:42:00,
2013-12-12 23:52:00,11.0,8.0,-100.00,East,90,0.0,1.0,89,0.00,,,0.27,,2013-12-13 08:52:00,